Preview of NWS' New Version of Forecast
This preview is not operational and should not be used for support decisions.

Regional Weather Roundup (RWR)

Issued by National Weather Service (NWS)

                            
000
ASUS45 KABQ 161710
RWRNM 
NEW MEXICO REGIONAL WEATHER ROUNDUP
NATIONAL WEATHER SERVICE ALBUQUERQUE NM
1100 AM MDT SUN JUN 16 2019

NOTE: "FAIR" MEANS FEW OR NO CLOUDS BELOW 12,000 FEET AGL WITH NO
       SIGNIFICANT WEATHER OR OBSTRUCTIONS TO VISION.

      THIS PRODUCT IS RELEASED AS TWO VERSIONS.  ONE VERSION NEAR
      THE TOP OF THE HOUR CONTAINING PRELIMINARY DATA FROM ALBUQUERQUE
      AND OTHER STATIONS.  A FINAL VERSION WITH ADDITIONAL DATA IS 
      ISSUED ABOUT 10 MINUTES AFTER THE HOUR.
 
NMZ501-503-504-510>518-161800-
NORTHWEST PLATEAU/NORTHCENTRAL MOUNTAINS
  
CITY           SKY/WX    TMP DP  RH WIND       PRES   REMARKS
FARMINGTON     FAIR      76  40  27 W3        30.07F                  
LOS ALAMOS       N/A     67  39  35 SE7       30.21S                  
SANTA FE       FAIR      75  38  26 S9        30.14F                  
TAOS           FAIR      69  40  34 VRB3      30.20F                  
ANGEL FIRE       N/A     64  41  43 N3        30.26F                  

$$
NMZ402-403-502-505>509-161800-
WESTCENTRAL MOUNTAINS/SOUTHWEST MOUNTAINS
  
CITY           SKY/WX    TMP DP  RH WIND       PRES   REMARKS
GALLUP         FAIR      76  39  26 SW7       30.13F                  
GRANTS         FAIR      77  35  21 CALM      30.14F                  
SILVER CITY    FAIR      83  32  16 CALM      30.08F                  

$$
NMZ407-409-411-412-161800-
SOUTHERN DESERTS
  
CITY           SKY/WX    TMP DP  RH WIND       PRES   REMARKS
DEMING         FAIR      86  26  11 W6        30.01F                  
LAS CRUCES     FAIR      84  37  18 CALM      30.03S                  
HOLLOMAN AFB   FAIR      84  36  18 S8        30.02R                  
ALAMOGORDO     FAIR      82  36  18 SW6       30.01S                  
T OR C         FAIR      86  37  17 VRB5      30.02F                  

$$
NMZ519>523-161800-
CENTRAL VALLEYS/CENTRAL HIGHLANDS
  
CITY           SKY/WX    TMP DP  RH WIND       PRES   REMARKS
ALBUQUERQUE    FAIR      76  42  29 VRB3      30.08F                  
DOUBLE EAGLE     N/A     75  41  29 W6        30.11F                  
MORIARTY ARPT  FAIR      76  40  26 SE7       30.17R                  
CLINES CORNERS FAIR      68  42  38 SE8       30.21R                  
BELEN          FAIR      78  37  22 S5        30.08S                  
SOCORRO        FAIR      82  37  20 N8        30.04F                  

$$
NMZ524>526-539-540-161800-
SOUTHCENTRAL MOUNTAINS
  
CITY           SKY/WX    TMP DP  RH WIND       PRES   REMARKS
RUIDOSO        FAIR      73  37  27 NE8       30.19S                  

$$
NMZ527>531-161800-
NORTHEAST HIGHLANDS/NORTHEAST PLAINS
  
CITY           SKY/WX    TMP DP  RH WIND       PRES   REMARKS
LAS VEGAS      FAIR      68  40  35 VRB3      30.19F                  
RATON          FAIR      66  48  52 VRB3      30.16S                  
CLAYTON        FAIR      71  53  52 NE9       30.09S                  

$$
NMZ532>537-161800-
EASTCENTRAL PLAINS
  
CITY           SKY/WX    TMP DP  RH WIND       PRES   REMARKS
SANTA ROSA     FAIR      75  45  34 NE3       30.08F                  
TUCUMCARI      FAIR      74  54  49 VRB7      30.04S                  
CANNON AFB     FAIR      73  51  46 NE9       30.06F                  
CLOVIS AIRPORT FAIR      70  53  54 N8        30.06S                  

$$
NMZ028-029-538-161800-
SOUTHEAST PLAINS
  
CITY           SKY/WX    TMP DP  RH WIND       PRES   REMARKS
ROSWELL        FAIR      82  47  29 NE10G20   30.01R                  
ARTESIA        FAIR      79  52  38 NE16      30.01S                  
CARLSBAD       FAIR      79  51  37 N12G22    29.97S                  
HOBBS          SUNNY     81  54  39 NE10G18   29.99S                  


$$